Regional Weather Roundup
Issued by NWS

Home | Current Version | Previous Version | Graphics & Text | Print | Product List | Glossary On
Versions: 1 2 3 4 5 6 7 8 9 10 11 12 13 14 15 16 17 18 19 20 21 22 23 24 25 26 27 28 29 30 31 32 33 34 35 36 37 38 39 40 41 42 43 44 45 46 47 48 49 50
196
ASUS43 KBIS 220010
RWRND

NORTH DAKOTA REGIONAL WEATHER ROUNDUP
NATIONAL WEATHER SERVICE BISMARCK ND
700 PM CDT MON AUG 21 2017

NOTE: "FAIR" INDICATES FEW OR NO CLOUDS BELOW 12,000 FEET WITH NO
SIGNIFICANT WEATHER AND/OR OBSTRUCTIONS TO VISIBILITY.


NDZ001>003-009>011-017-220100-
NORTHWEST NORTH DAKOTA

CITY           SKY/WX    TMP DP  RH WIND       PRES   REMARKS
WILLISTON      SUNNY     75  35  23 N15       30.10S
6HR MIN TEMP:  67; 6HR MAX TEMP:  77;

MINOT          MOSUNNY   73  39  29 NW13G26   30.04R
MINOT AFB      SUNNY     73  38  28 N17G24    30.03R
$$

NDZ018>021-031>035-040>046-220100-
SOUTHWEST NORTH DAKOTA

CITY           SKY/WX    TMP DP  RH WIND       PRES   REMARKS
BISMARCK       SUNNY     75  39  27 NW13G26   30.05R
6HR MIN TEMP:  70; 6HR MAX TEMP:  78;

DICKINSON      SUNNY     73  38  27 N16G26    30.10R
GARRISON         N/A     72  38  29 N17G28    30.05R
6HR MIN TEMP:  69; 6HR MAX TEMP:  75;

HETTINGER ARPT SUNNY     74  41  30 N15       30.12S
$$

NDZ004>008-012>016-024-026-027-054-220100-
NORTHEAST NORTH DAKOTA

CITY           SKY/WX    TMP DP  RH WIND       PRES   REMARKS
GRAND FORKS    MOSUNNY   72  57  59 NW7       29.88S
GRND FRKS AFB  MOSUNNY   71  54  54 NW13      29.90R
DEVILS LAKE    SUNNY     69  47  45 N14       29.98R
$$

NDZ022-023-025-028>030-036>039-047>053-220100-
SOUTHEAST NORTH DAKOTA

CITY           SKY/WX    TMP DP  RH WIND       PRES   REMARKS
FARGO          SUNNY     73  59  61 NW15      29.89R
6HR MIN TEMP:  69; 6HR MAX TEMP:  76;

JAMESTOWN      SUNNY     71  50  47 NW17G28   29.96R
$$





USA.gov is the U.S. government's official web portal to all federal, state and local government web resources and services.